Flag for Albania Weather past 2 weeks in Durrës, Albania

Now
43 °F

Passing clouds.


Feels Like: 40 °F
Forecast: 55 / 66 °F
Wind: 5 mph from Southeast

Location: Tirana Airport

Current Time: Apr 22, 2015 at 6:20:18 AM

Latest Report: Apr 22, 2015 at 5:20 AM


Visibility: N/A

Pressure: 30.12 "Hg

Humidity: 87%

Dew point: 39 °F

Location of DurrësLocation

Historic Weather in Durrës — Graph

°F

Durrës temperature yesterday

Maximum temperature yesterday: 70 °F (at 1:50 PM)
Minimum temperature yesterday: 41 °F (at 5:20 AM)
Average temperature yesterday: 56 °F

Past Weeks' High & Low Weather Summary

 TemperatureHumidityPressure
High73 °F (Apr 15, 2:50 PM)94% (Apr 12, 10:20 PM)30.39 "Hg (Apr 12, 10:20 PM)
Low37 °F (Apr 10, 4:20 AM)18% (Apr 10, 12:50 PM)29.89 "Hg (Apr 18, 3:20 PM)
Average56 °F58%30.14 "Hg
* Reported Apr 7 5:20 AM — Apr 22 5:20 AM, Durrës, Weather by CustomWeather, © 2015

Note: Actual official high and low records may vary slightly from our data, if they occured in-between our weather recording intervals... More about our weather records

Advertising

Durrës weather history for previous 24 hours

 ConditionsComfort  
Time TempWeatherWind HumidityBarometerVisibility
5:20 AM
Wed, Apr 22
43 °FPassing clouds.5 mph87%30.12 "HgN/A
4:20 AM43 °FClear.No wind87%30.12 "Hg10 mi
3:50 AM43 °FClear.No wind87%30.12 "Hg10 mi
3:20 AM43 °FClear.2 mph81%30.09 "Hg10 mi
2:50 AM45 °FClear.2 mph81%30.09 "Hg10 mi
2:20 AM45 °FClear.5 mph81%30.09 "Hg10 mi
1:50 AM46 °FClear.1 mph76%30.09 "Hg10 mi
1:20 AM48 °FClear.2 mph71%30.09 "Hg10 mi
12:50 AM48 °FClear.2 mph71%30.09 "Hg10 mi
12:20 AM48 °FClear.1 mph76%30.09 "Hg10 mi
11:50 PM
Tue, Apr 21
50 °FClear.3 mph67%30.09 "Hg10 mi
11:20 PM48 °FClear.5 mph71%30.09 "Hg10 mi
10:20 PM50 °FClear.6 mph76%30.09 "Hg10 mi
9:50 PM52 °FPassing clouds.3 mph72%30.09 "HgN/A
9:20 PM54 °FClear.2 mph67%30.09 "Hg10 mi
8:50 PM55 °FClear.2 mph63%30.09 "Hg10 mi
8:20 PM57 °FSunny.2 mph59%30.07 "Hg10 mi
7:50 PM59 °FSunny.6 mph51%30.07 "Hg10 mi
7:20 PM59 °FSunny.9 mph55%30.07 "Hg10 mi
6:50 PM63 °FSunny.12 mph42%30.07 "Hg10 mi
6:20 PM64 °FSunny.13 mph34%30.04 "Hg10 mi
5:50 PM66 °FSunny.16 mph32%30.04 "Hg10 mi
5:20 PM64 °FPassing clouds.15 mph32%30.04 "HgN/A
4:50 PM66 °FPassing clouds.15 mph28%30.04 "HgN/A
4:20 PM68 °FPassing clouds.15 mph24%30.04 "HgN/A
3:50 PM68 °FPassing clouds.14 mph28%30.04 "HgN/A
3:20 PM68 °FPassing clouds.15 mph33%30.04 "HgN/A
2:50 PM70 °FPassing clouds.14 mph27%30.04 "HgN/A
2:20 PM68 °FPassing clouds.14 mph28%30.04 "HgN/A
1:50 PM70 °FPassing clouds.14 mph27%30.04 "HgN/A
1:20 PM68 °FPassing clouds.14 mph28%30.04 "HgN/A
12:50 PM68 °FPassing clouds.15 mph30%30.07 "HgN/A
12:20 PM68 °FPassing clouds.14 mph30%30.04 "HgN/A
11:50 AM66 °FSunny.13 mph32%30.07 "Hg10 mi
11:20 AM66 °FPassing clouds.12 mph37%30.07 "HgN/A
10:50 AM64 °FPassing clouds.13 mph43%30.07 "HgN/A
10:20 AM61 °FPassing clouds.12 mph52%30.07 "HgN/A
9:50 AM59 °FScattered clouds.7 mph55%30.07 "HgN/A
9:20 AM57 °FScattered clouds.2 mph59%30.07 "HgN/A
8:50 AM55 °FScattered clouds.2 mph59%30.07 "HgN/A
8:20 AM52 °FScattered clouds.3 mph72%30.07 "HgN/A
7:50 AM48 °FScattered clouds.3 mph82%30.07 "HgN/A
7:20 AM45 °FScattered clouds.3 mph87%30.04 "HgN/A
6:50 AM45 °FPassing clouds.3 mph81%30.04 "HgN/A
6:20 AM43 °FPassing clouds.2 mph87%30.04 "HgN/A
Weather by CustomWeather, © 2015

See weather overviewHow to use our weather pages